COSMOS 1275 DEB, 13483

Orbit data source: Space-Track

COSMOS 1275 DEB, 13483 is space debris in LEO originally from a launch on Thu, 04 Jun 1981 UTC launched from the Plesetsk Missile And Space Complex (PKMTR). Debris objects in space refer to the collection of defunct objects orbiting the Earth. Examples of debris include non-operational satellites, rocket bodies, and fragments generated from explosions, collisions, or faulty payload assembly.

Loading next visibility...
Identifier
13483, 1981-053GD
Orbit
LEO
Country
Flag of CISCIS
Related business
Manufacturer
Unknown
Mission
Spacecraft
Bus & Motor
Unknown
Mass
Unknown
Launch date (UTC)
1981-06-04 (45 years ago)
Launch vehicle
Unknown
Launch site
Plesetsk Missile And Space Complex (PKMTR)
Object type
Payload
Rocket body
Debris
Shape & HBR
Unknown shape, 0.1 m
Radar Cross Section
Small (<0.1 m²)

Expand to show TLE details & history
Last TLE update: 10 hours ago

TLE from 10 hours ago
0 COSMOS 1275 DEB
1 13483U 81053GD  26094.15208885  .00003463  00000-0  15479-2 0  9998
2 13483  82.9215 145.4094 0006867 328.0145  85.8304 14.22415525236881
Epoch: 2026-04-04T03:39Z
TLE epoch observation values (Epoch: 2026-04-04T03:39:00.476Z)
Latitude
53.42803°
Longitude
-92.2349°
Altitude
825.602 km
Speed
7.446 km/s
True Right ascension
10h 19m 58s
True Declination
53° 15' 54"
Sunlit
Object was in daylight at epoch
Visualization orbit readout
Latitude
Unknown
Longitude
Unknown
Altitude
Unknown
Speed
Unknown
Apparent Right ascension
Unknown
Apparent Declination
Unknown
Sunlit
N/A
Visualization observer readout
Local Sidereal Time
19:55:20
Azimuth
Unknown
Elevation
Unknown
Doppler factor
Unknown
Orbital elements
Apogee altitude
819.219 km
Perigee altitude
809.341 km
Semi-major axis
7,192.417 km
Eccentricity
0.00069
Inclination
82.9215°
RAAN
145.4094°
Arg. of periapsis
328.0145°
True anomaly
85.90889°
Mean anomaly
85.8304°
Eccentric anomaly
85.86964°
Mean motion
3.5582 °/min
Orbital period
101.17 mins
BSTAR
0.0015479
Loading maneuver chart data...
Computing Atmospheric mass density...
Loading historical data...
Loading historical data...
Loading historical data...
Loading historical data...
Loading historical data...
Loading historical data...
Loading historical data...

Documentation

Showing up to 5 results
|